Location: Newark
(46.9000°N, 28.3500°E)
Time: 15:03:59
(UTC+00:00)

Explorer 7 - Pass Details

Date: 25 August 2019
Orbit: 485 x 680 km, 50.3° (Epoch: 22 October)

Event Time Altitude Azimuth Distance (km) Brightness Sun altitude
Rises 08:04:02 0° 255° (WSW) 3,008 10.4 45.3°
Reaches altitude 10° 08:06:27 10° 257° (WSW) 2,080 9.6 45.6°
Maximum altitude 08:11:15 75° 343° (NNW) 669 7.8 46.2°
Drops below altitude 10° 08:15:50 10° 69° (ENE) 1,982 10.0 46.7°
Sets 08:18:05 0° 71° (ENE) 2,856 10.7 47.0°
